Change the Weather History Date:

Tuesday, April 30, 2013

  Actual Average Record
Temperature  
Mean Temperature 58 °F -  
Max Temperature 72 °F 62 °F 80 °F (2004)
Min Temperature 46 °F 38 °F 25 °F (2012)
Degree Days  
Heating Degree Days 7    
Growing Degree Days 8 (Base 50)    
Moisture  
Dew Point 31 °F    
Average Humidity 40    
Maximum Humidity 74    
Minimum Humidity 20    
Precipitation  
Precipitation 0.00 in - - ()
Sea Level Pressure  
Sea Level Pressure 30.27 in    
Wind  
Wind Speed 3 mph (SE)    
Max Wind Speed 14 mph    
Max Gust Speed -    
Visibility 10 miles    
Events      
Averages and records for this station are not official NWS values.
T = Trace of Precipitation, MM = Missing Value Source: NWS Daily Summary

Daily Weather History Graph

Daily Weather History Graph

Search for Another Location

Airport or City:

Trip Planner

Search our weather history database for the weather conditions in past years. The results will help you decide how hot, cold, wet, or windy it might be!

Date:

Astronomy

Apr. 30, 2013 Rise Set
Actual Time 5:48 AM EDT 7:52 PM EDT
Civil Twilight 5:17 AM EDT 8:23 PM EDT
Nautical Twilight 4:39 AM EDT 9:00 PM EDT
Astronomical Twilight 3:58 AM EDT 9:42 PM EDT
Moon 12:14 AM EDT (4/30) 10:12 AM EDT (4/30)
Length of Visible Light 15h 05m
Length of Day
14h 03m
Waning Gibbous, 70% of the Moon is Illuminated
Apr 30
Waning Gibbous
May 2
Last Quarter
May 9
New
May 18
First Quarter
May 25
Full

Hourly Weather History & Observations

Time (EDT) Temp. Dew Point Humidity Pressure Visibility Wind Dir Wind Speed Gust Speed Precip Events Conditions
12:52 AM 48.9 °F 34.0 °F 56% 30.24 in 10.0 mi Calm Calm - 0.00 in   Overcast
2:52 AM 46.9 °F 39.0 °F 74% 30.24 in 10.0 mi Calm Calm - N/A   Overcast
3:52 AM 48.9 °F 34.0 °F 56% 30.25 in 10.0 mi Calm Calm - N/A   Overcast
4:52 AM 48.9 °F 33.1 °F 54% 30.26 in 10.0 mi Calm Calm - N/A   Overcast
5:52 AM 50.0 °F 32.0 °F 50% 30.27 in 10.0 mi East 5.8 mph - N/A   Overcast
6:52 AM 48.9 °F 33.1 °F 54% 30.29 in 10.0 mi Calm Calm - N/A   Overcast
7:52 AM 52.0 °F 33.1 °F 49% 30.30 in 10.0 mi Calm Calm - N/A   Clear
8:52 AM 54.0 °F 30.9 °F 41% 30.31 in 10.0 mi East 4.6 mph - N/A   Partly Cloudy
9:52 AM 57.9 °F 30.0 °F 35% 30.30 in 10.0 mi Variable 3.5 mph - N/A   Mostly Cloudy
10:52 AM 63.0 °F 28.0 °F 27% 30.29 in 10.0 mi SSW 4.6 mph - N/A   Overcast
11:52 AM 66.0 °F 30.9 °F 27% 30.26 in 10.0 mi WSW 4.6 mph - N/A   Partly Cloudy
12:52 PM 69.1 °F 30.0 °F 23% 30.25 in 10.0 mi SE 10.4 mph - N/A   Clear
1:52 PM 70.0 °F 30.0 °F 23% 30.25 in 10.0 mi ESE 13.8 mph - N/A   Clear
3:52 PM 70.0 °F 28.0 °F 21% 30.23 in 10.0 mi Calm Calm - N/A   Partly Cloudy
4:52 PM 70.0 °F 28.0 °F 21% 30.23 in 10.0 mi SSE 5.8 mph - N/A   Scattered Clouds
5:52 PM 70.0 °F 27.0 °F 20% 30.24 in 10.0 mi ESE 8.1 mph - N/A   Mostly Cloudy
6:52 PM 66.9 °F 26.1 °F 21% 30.25 in 10.0 mi SE 4.6 mph - N/A   Clear
7:52 PM 64.0 °F 27.0 °F 25% 30.26 in 10.0 mi SE 4.6 mph - N/A   Clear
8:52 PM 55.9 °F 32.0 °F 40% 30.28 in 10.0 mi East 3.5 mph - N/A   Clear
9:52 PM 50.0 °F 34.0 °F 54% 30.30 in 10.0 mi Calm Calm - N/A   Clear
10:52 PM 50.0 °F 33.1 °F 52% 30.31 in 10.0 mi Calm Calm - N/A   Clear
11:52 PM 48.0 °F 32.0 °F 54% 30.32 in 10.0 mi East 5.8 mph - N/A   Clear